Bei Facebook empfehlenBei Twitter postenGoogle plusPinterest

Das Wetter im Erzgebirge am 10.12.2015

Wetter und Klima am 10.12.2015 Holzhau im Erzgebirge (630m ü.NN)
Letzte gemessene Temperatur und Uhrzeit der Messung23:45:00 Uhr-1.80 °C
Temperatur (Maximum / Höchstwert) und Uhrzeit der Messung14:15:00 Uhr4.00 °C
Temperatur (Minimum / Tiefstwert) und Uhrzeit der Messung07:30:00-3.70 °C
Errechneter Absolutwert der Temperaturschwankungen zwischen Tmin und Tmax des Tages7.70 K
Errechnete Tagesmitteltemperatur-0.91563 °C
Gesamt - Niederschlag des Tages (in flüssiger Form)0.00 Liter / m²
Luftdruck (Maximum / Höchstwert) und Zeitpunkt der Messung00:00:00 Uhr1031.80 hPa
Luftdruck (Minimum / Tiefstwert) und Zeitpunkt der Messung23:45:00 Uhr1024.20 hPa
Errechneter Absolutwert der Luftdruckschwankungen des Tages7.60 hPa
Höchste gemessene Windgeschwindigkeit und Uhrzeit der Messung19:00:00 Uhr9.72 km/h
Errechnete Windhäufigkeit in Relation zu den Messwerten des Tages19.79167 %
Niedrigste Windkühle (Windchill) und Zeitpunkt der Messung19:00:00 Uhr-4.60 °C
Taupunkt (Maximum / Höchstwert) und Uhrzeit der Messung14:15:00 Uhr3.30 °C
Taupunkt (Minimum / Tiefstwert) und Uhrzeit der Messung07:30:00-4.60 °C
Anzahl der automatisch eingelesenen Messwerte 96

Detaillierte Wetter- und Klima- Messwerte für den 10.12.2015 in Holzhau im Erzgebirge (630m ü.NN)
ZeitTemperaturLuftdruckRel. LuftfeuchteWindWindrichtungWindchillTaupunktNiederschlag l/m²
23:45:00-1.80 °C1024.20 hPa94.00 %-2.70 °C 
23:30:00-1.60 °C1024.50 hPa94.00 %4.32 km/hO-1.60 °C-2.50 °C 
23:15:00-1.50 °C1024.30 hPa94.00 %-2.40 °C 
23:00:00-1.40 °C1024.60 hPa94.00 %4.68 km/hOSO-1.40 °C-2.30 °C 
22:45:00-1.30 °C1024.50 hPa94.00 %-2.20 °C 
22:30:00-1.20 °C1024.70 hPa94.00 %3.96 km/hSO-1.20 °C-2.10 °C 
22:15:00-1.30 °C1024.70 hPa95.00 %-2.10 °C 
22:00:00-1.20 °C1024.90 hPa95.00 %3.60 km/hSO-1.20 °C-2.00 °C 
21:45:00-1.30 °C1025.10 hPa95.00 %-2.10 °C 
21:30:00-1.30 °C1025.30 hPa95.00 %3.24 km/hOSO-1.30 °C-2.10 °C 
21:15:00-1.20 °C1025.60 hPa95.00 %-2.00 °C 
21:00:00-1.00 °C1025.50 hPa95.00 %-1.80 °C 
20:45:00-1.10 °C1025.70 hPa95.00 %2.16 km/hSSO-1.10 °C-1.90 °C 
20:30:00-1.20 °C1025.70 hPa95.00 %7.56 km/hSO-4.00 °C-2.00 °C 
20:15:00-1.10 °C1025.90 hPa95.00 %3.24 km/hSO-1.10 °C-1.90 °C 
20:00:00-1.20 °C1026.10 hPa94.00 %-2.10 °C 
19:45:00-1.00 °C1026.40 hPa94.00 %-1.90 °C 
19:30:00-0.90 °C1026.30 hPa94.00 %2.88 km/hOSO-0.90 °C-1.80 °C 
19:15:00-0.90 °C1026.40 hPa94.00 %-1.80 °C 
19:00:00-1.10 °C1026.50 hPa94.00 %9.72 km/hSO-4.60 °C-2.00 °C 
18:45:00-1.20 °C1026.60 hPa94.00 %8.64 km/hSO-4.40 °C-2.10 °C 
18:30:00-1.30 °C1026.70 hPa94.00 %3.96 km/hOSO-1.30 °C-2.20 °C 
18:15:00-1.30 °C1026.90 hPa94.00 %-2.20 °C 
18:00:00-1.10 °C1027.30 hPa94.00 %-2.00 °C 
17:45:00-1.10 °C1027.30 hPa94.00 %-2.00 °C 
17:30:00-1.10 °C1027.40 hPa94.00 %-2.00 °C 
17:15:00-1.20 °C1027.50 hPa94.00 %-2.10 °C 
17:00:00-1.10 °C1027.80 hPa94.00 %-2.00 °C 
16:45:00-1.00 °C1027.70 hPa94.00 %2.88 km/hO-1.00 °C-1.90 °C 
16:30:00-0.80 °C1028.00 hPa94.00 %5.04 km/hOSO-2.50 °C-1.70 °C 
16:15:00-0.60 °C1028.30 hPa94.00 %-1.50 °C 
16:00:00-0.20 °C1028.40 hPa94.00 %3.96 km/hOSO-0.20 °C-1.10 °C 
15:45:000.10 °C1028.50 hPa94.00 %6.48 km/hSO-2.10 °C-0.70 °C 
15:30:000.50 °C1028.40 hPa94.00 %-0.40 °C 
15:15:001.30 °C1028.50 hPa94.00 %4.32 km/hO1.30 °C0.40 °C 
15:00:002.30 °C1028.60 hPa94.00 %1.40 °C 
14:45:003.30 °C1028.70 hPa95.00 %2.60 °C 
14:30:003.60 °C1028.70 hPa95.00 %2.90 °C 
14:15:004.00 °C1028.80 hPa95.00 %3.30 °C 
14:00:003.80 °C1029.00 hPa95.00 %3.10 °C 
13:45:003.90 °C1029.00 hPa96.00 %3.30 °C 
13:30:003.80 °C1029.20 hPa96.00 %3.20 °C 
13:15:003.60 °C1029.20 hPa96.00 %3.00 °C 
13:00:003.70 °C1029.20 hPa96.00 %3.10 °C 
12:45:003.80 °C1029.20 hPa96.00 %3.20 °C 
12:30:003.50 °C1029.10 hPa96.00 %2.90 °C 
12:15:002.90 °C1029.20 hPa96.00 %2.30 °C 
12:00:002.30 °C1029.20 hPa96.00 %1.70 °C 
11:45:001.60 °C1029.50 hPa95.00 %0.90 °C 
11:30:001.30 °C1029.90 hPa95.00 %0.60 °C 
11:15:000.80 °C1030.00 hPa96.00 %2.52 km/hOSO0.80 °C0.20 °C 
11:00:000.20 °C1030.10 hPa96.00 %-0.40 °C 
10:45:00-0.20 °C1030.30 hPa95.00 %-1.00 °C 
10:30:00-0.70 °C1030.60 hPa95.00 %-1.50 °C 
10:15:00-1.10 °C1030.70 hPa95.00 %-1.90 °C 
10:00:00-1.70 °C1030.70 hPa95.00 %-2.50 °C 
09:45:00-2.50 °C1030.70 hPa95.00 %2.16 km/hWSW-2.50 °C-3.30 °C 
09:30:00-3.10 °C1030.80 hPa95.00 %-3.90 °C 
09:15:00-3.40 °C1030.90 hPa95.00 %-4.20 °C 
09:00:00-3.60 °C1031.00 hPa94.00 %-4.50 °C 
08:45:00-3.50 °C1031.00 hPa95.00 %-4.30 °C 
08:30:00-3.30 °C1030.70 hPa95.00 %-4.10 °C 
08:15:00-3.40 °C1030.80 hPa95.00 %-4.20 °C 
08:00:00-3.40 °C1030.70 hPa95.00 %-4.20 °C 
07:45:00-3.50 °C1030.70 hPa95.00 %-4.30 °C 
07:30:00-3.70 °C1030.90 hPa94.00 %-4.60 °C 
07:15:00-3.70 °C1030.90 hPa94.00 %-4.60 °C 
07:00:00-3.60 °C1031.00 hPa95.00 %-4.40 °C 
06:45:00-3.50 °C1030.80 hPa95.00 %-4.30 °C 
06:30:00-3.40 °C1031.00 hPa95.00 %-4.20 °C 
06:15:00-3.10 °C1030.80 hPa95.00 %-3.90 °C 
06:00:00-3.10 °C1030.90 hPa95.00 %-3.90 °C 
05:45:00-3.10 °C1031.10 hPa95.00 %-3.90 °C 
05:30:00-3.20 °C1031.10 hPa95.00 %-4.00 °C 
05:15:00-3.30 °C1031.20 hPa95.00 %-4.10 °C 
05:00:00-3.20 °C1031.00 hPa95.00 %-4.00 °C 
04:45:00-3.10 °C1031.10 hPa95.00 %-3.90 °C 
04:30:00-2.80 °C1031.20 hPa95.00 %-3.60 °C 
04:15:00-2.50 °C1031.30 hPa95.00 %-3.30 °C 
04:00:00-2.20 °C1031.30 hPa95.00 %-3.00 °C 
03:45:00-2.30 °C1031.30 hPa95.00 %-3.10 °C 
03:30:00-2.10 °C1031.20 hPa95.00 %-2.90 °C 
03:15:00-1.80 °C1031.30 hPa95.00 %-2.60 °C 
03:00:00-1.90 °C1031.20 hPa95.00 %-2.70 °C 
02:45:00-2.20 °C1031.10 hPa95.00 %-3.00 °C 
02:30:00-2.10 °C1031.20 hPa95.00 %-2.90 °C 
02:15:00-1.90 °C1031.20 hPa95.00 %-2.70 °C 
02:00:00-1.60 °C1031.30 hPa95.00 %-2.40 °C 
01:45:00-1.30 °C1031.30 hPa95.00 %-2.10 °C 
01:30:00-1.10 °C1031.30 hPa95.00 %-1.90 °C 
01:15:00-1.10 °C1031.50 hPa95.00 %-1.90 °C 
01:00:00-1.10 °C1031.50 hPa95.00 %-1.90 °C 
00:45:00-0.90 °C1031.50 hPa95.00 %-1.70 °C 
00:30:00-0.20 °C1031.60 hPa95.00 %-1.00 °C 
00:15:000.20 °C1031.70 hPa95.00 %-0.50 °C 
00:00:000.70 °C1031.80 hPa95.00 %0.00 °C 

Permanenter Link zu dieser Seite: Wetter im Erzgebirge am 10.12.2015
Performance-Info: Die Erstellung der Seite / Statistik(en) / Tabelle(n) erforderte 5 Datenbankserver-Abfrage(n) und dauerte 102 Millisekunden. (Dieser Messwert ist von der Gesamt-Auslastung des Servers abhängig.)
Erzgebirge - Wetter | Erzgebirge - Wetter (Mobilgeräte) | Komplette Klimadatenbank